Wind_Speed
13 13 12 12 11 11 10 10 10 9 9 9 9 9 9 9 9 9 9 9 10 10 10 10 10 10 10 9 9 9 9 8 8 7 7 7 7 7 7 7 6 6 6
14 13 13 13 12 12 11 11 10 10 10 10 10 10 10 10 10 10 10 10 10 10 11 11 11 11 11 10 10 9 9 9 8 8 8 8 7 7 7 8 8 7 7
15 15 14 13 13 13 12 12 11 11 11 10 11 11 11 11 11 11 11 11 11 11 12 12 12 12 12 12 12 11 10 10 9 9 9 9 9 9 9 9 9 9 9
17 16 16 15 15 14 14 13 13 12 12 12 12 12 12 12 12 12 13 12 12 12 12 12 13 13 13 13 13 13 12 12 11 10 10 10 10 9 10 10 10 9 10
18 17 17 17 16 16 16 15 15 14 14 14 14 14 14 14 14 14 13 13 13 13 13 13 13 13 14 14 14 13 13 13 13 12 11 11 11 11 11 11 11 11 11
19 19 18 18 18 18 17 17 17 16 16 16 16 16 16 15 15 15 15 14 14 14 14 14 14 14 14 14 15 14 14 14 14 13 13 12 12 11 11 12 12 12 12
21 21 20 20 20 20 20 19 19 18 18 18 18 18 17 17 17 17 16 16 16 15 15 15 16 15 15 15 15 16 16 15 15 15 14 14 14 14 13 13 13 13 13
23 22 22 22 22 21 21 21 20 20 20 20 20 20 19 19 19 18 18 18 18 17 17 16 17 17 17 17 17 17 17 17 17 16 16 16 15 15 15 15 14 15 14
24 24 24 24 24 23 23 23 23 22 21 21 21 21 21 21 21 20 20 20 20 19 19 18 18 18 18 18 18 18 19 19 19 18 18 18 17 16 16 16 16 16 16
26 26 26 26 26 25 25 25 25 24 23 23 23 23 23 22 22 22 22 22 22 22 21 21 20 20 20 20 19 20 20 20 20 20 20 19 19 18 17 18 18 17 17
28 28 28 28 27 27 26 26 26 26 25 25 25 25 24 24 24 24 24 24 24 24 24 23 22 22 22 21 21 20 20 20 21 21 21 21 21 21 20 19 19 19 19
29 29 29 30 29 29 28 28 28 28 27 27 27 26 26 26 26 26 25 26 25 26 25 25 25 25 24 24 23 23 22 21 21 22 22 22 22 23 22 21 21 21 21
31 31 31 32 31 31 31 30 29 29 29 28 28 28 27 27 27 27 27 27 27 27 27 27 27 27 26 26 26 26 25 25 24 24 24 24 23 24 24 23 23 22 22
32 32 33 33 33 33 32 32 32 31 30 30 30 30 29 29 29 29 29 29 28 29 29 29 29 29 28 28 28 28 28 27 27 26 26 26 25 26 26 25 25 25 24
33 33 33 34 34 34 34 34 33 33 32 32 32 32 31 31 31 31 31 31 30 30 31 31 31 30 30 30 29 29 29 29 29 28 28 28 27 27 28 28 28 28 27
35 35 35 35 35 35 35 35 35 35 35 34 34 34 33 33 33 33 33 33 32 32 32 33 33 32 32 32 32 31 31 31 31 31 31 30 30 30 30 30 30 30 30
36 36 37 37 37 37 37 37 37 37 37 37 36 36 36 36 36 35 35 35 35 35 34 34 35 34 34 34 34 33 33 33 33 33 33 33 33 33 33 33 33 32 32
38 38 38 38 38 38 38 39 39 39 39 39 39 38 38 38 38 38 37 37 37 37 37 37 36 36 36 35 35 35 35 35 35 35 35 35 36 36 35 35 35 34 34
40 39 39 39 40 40 40 40 40 40 40 40 40 40 39 39 40 40 40 39 39 38 38 38 38 38 37 37 37 37 36 36 36 36 36 37 37 37 37 37 37 36 35
41 41 40 40 40 41 41 41 41 41 41 40 40 40 39 40 40 40 40 41 41 40 40 39 39 39 39 39 38 38 37 38 38 38 38 38 39 39 39 39 39 39 38
41 41 41 42 41 41 42 41 41 41 41 41 41 40 40 40 40 40 40 41 41 41 41 40 40 40 40 40 39 39 39 39 39 40 40 40 40 40 40 40 40 40 40
42 42 42 42 43 43 42 42 41 41 41 41 40 41 41 40 41 40 41 41 41 41 41 41 41 41 41 41 41 41 41 40 41 41 41 41 41 41 41 41 42 42 42
44 43 43 43 43 43 43 42 42 42 41 41 41 41 41 41 42 41 42 42 42 42 42 42 42 42 42 42 42 42 42 42 42 42 42 42 42 42 42 42 42 43 43
44 44 44 44 43 43 42 42 43 42 42 42 41 42 42 42 42 42 42 42 42 42 42 42 42 42 43 43 43 43 43 43 43 42 43 43 43 43 43 43 43 44 44
44 44 44 44 44 44 43 43 43 43 43 43 43 43 43 43 43 43 43 43 42 42 42 43 43 43 43 43 43 44 44 44 44 44 43 43 44 44 44 45 45 45 45
44 44 45 45 44 45 44 44 44 44 43 44 44 44 44 44 43 44 44 44 43 43 44 44 44 44 44 45 44 45 45 45 45 45 44 44 44 45 45 45 46 46 46
Wind_Direction
242 241 241 241 243 246 249 251 253 254 256 257 258 260 261 262 262 263 264 267 267 265 262 261 261 258 258 259 260 260 259 255 251 250 251 251 251 251 251 249 244 245 248
242 243 244 243 244 246 250 250 252 255 255 256 257 258 260 262 263 265 266 268 267 265 262 260 259 257 258 257 259 259 257 255 254 252 251 251 249 248 250 252 248 247 248
241 242 244 247 249 251 252 252 252 253 254 254 256 258 260 262 263 265 267 270 269 265 264 264 261 257 259 259 258 257 257 256 255 255 252 250 247 247 248 249 249 249 250
243 243 244 246 250 253 253 254 254 254 254 255 256 257 259 261 262 265 267 267 267 266 264 264 262 259 260 261 261 260 259 257 256 254 252 251 250 250 251 250 248 249 251
245 245 244 245 248 252 254 255 254 255 256 256 256 257 259 261 264 266 267 267 265 264 263 262 262 262 261 261 261 261 259 256 255 252 253 254 254 253 253 252 252 252 253
246 246 245 246 249 251 253 254 256 256 256 256 257 258 259 262 264 265 266 266 264 262 261 261 260 260 261 261 260 260 259 257 254 252 251 253 254 254 255 255 254 255 255
247 247 247 248 250 251 253 255 256 257 258 258 258 258 259 261 263 264 265 265 263 261 260 260 260 259 260 261 260 260 259 257 255 253 251 252 254 254 256 258 257 256 257
249 248 249 250 250 252 254 255 256 258 258 258 258 258 259 260 261 263 264 263 262 260 259 260 261 260 260 262 261 260 258 258 256 255 254 254 255 256 256 256 258 258 258
251 250 250 251 252 253 254 256 257 258 258 258 258 259 259 260 260 261 263 263 261 259 259 259 261 263 261 261 260 259 258 257 257 256 255 255 255 255 255 254 256 256 257
252 252 252 253 253 254 255 256 257 258 258 258 259 259 260 259 259 260 261 262 261 259 258 260 261 262 263 262 260 258 257 256 257 257 256 255 254 254 255 255 256 257 258
254 254 254 254 254 255 256 257 257 258 259 259 260 259 259 259 260 260 261 261 261 259 258 258 259 261 262 262 260 259 258 257 257 258 257 257 255 254 255 257 257 258 259
254 254 255 255 255 256 257 257 258 259 259 260 259 259 259 259 260 260 261 261 260 259 258 258 259 260 261 260 261 259 259 258 258 258 258 258 256 255 256 257 258 257 258
255 254 255 255 255 256 257 257 258 259 259 259 259 258 259 260 260 261 261 261 261 259 259 259 260 260 260 260 261 260 259 259 258 258 258 257 256 257 257 258 258 258 258
255 255 255 255 255 255 256 258 258 259 259 259 258 258 259 260 260 261 260 260 260 260 260 260 260 260 260 260 260 260 259 259 259 257 257 257 257 257 258 259 260 260 260
255 255 255 255 255 255 256 257 258 258 258 258 259 259 259 260 261 261 260 261 260 259 259 260 259 260 260 260 260 260 258 257 257 256 257 257 258 258 259 260 261 262 262
256 256 255 255 255 256 257 257 258 258 258 259 260 259 259 260 261 261 261 260 260 260 260 260 259 260 260 260 260 259 259 258 257 257 257 258 258 259 260 261 262 263 263
257 257 256 256 256 256 257 257 258 259 259 259 260 260 260 261 261 262 262 262 261 261 261 260 260 259 259 259 259 259 259 259 258 257 257 258 259 259 259 261 263 263 264
256 256 256 256 257 257 258 258 259 259 260 260 260 260 261 262 263 263 262 262 262 262 261 261 260 259 259 258 258 259 259 260 260 259 258 258 259 259 259 260 262 263 264
257 256 256 256 256 257 257 258 258 259 260 260 260 260 261 262 263 263 263 263 263 263 262 261 260 259 258 258 258 258 259 260 261 260 259 259 259 259 259 260 261 262 263
258 258 258 257 257 256 257 257 257 258 260 260 261 261 261 262 263 264 264 264 263 263 262 261 260 259 258 258 259 259 260 261 261 261 260 260 259 259 259 260 261 261 261
258 259 259 257 256 256 256 256 257 258 259 260 261 262 262 263 264 265 265 265 264 263 262 261 260 259 259 259 259 260 260 261 261 261 261 261 260 260 259 259 260 261 261
257 258 258 257 256 255 256 256 256 257 259 260 261 262 263 264 265 266 265 265 264 263 262 260 260 260 260 260 259 260 260 261 261 261 261 261 261 260 260 259 259 260 261
256 257 257 257 256 255 255 255 256 257 258 259 261 262 263 264 265 265 265 265 264 263 261 260 260 260 260 260 259 260 261 261 262 261 261 261 261 261 260 260 260 260 260
256 256 256 255 255 255 255 255 256 257 258 259 260 261 262 263 264 265 265 264 263 263 261 260 260 260 260 259 259 260 261 262 262 261 262 262 261 261 261 261 261 260 260
255 255 255 255 254 254 255 255 256 257 258 259 260 261 262 263 264 265 265 264 263 263 262 261 261 260 259 259 259 260 261 262 262 262 262 263 263 262 262 262 262 262 261
254 255 254 254 254 254 254 255 256 257 258 259 260 261 262 263 264 265 265 264 264 264 263 262 261 260 260 259 260 260 261 262 262 262 263 263 263 263 263 263 263 264 263
Height
5814 5815 5816 5817 5818 5818 5819 5820 5821 5821 5822 5823 5824 5825 5826 5827 5828 5828 5829 5830 5831 5832 5833 5834 5834 5835 5836 5837 5838 5838 5839 5840 5841 5842 5843 5843 5844 5845 5846 5847 5847 5848 5849
5812 5813 5814 5814 5815 5816 5817 5818 5819 5819 5820 5821 5822 5823 5824 5825 5826 5826 5827 5828 5829 5830 5831 5832 5832 5833 5834 5835 5836 5837 5837 5838 5839 5840 5841 5842 5843 5843 5844 5845 5846 5847 5848
5809 5810 5811 5812 5813 5814 5815 5816 5816 5817 5818 5819 5820 5820 5821 5822 5823 5824 5825 5826 5827 5828 5829 5829 5830 5831 5832 5833 5834 5835 5836 5837 5837 5838 5839 5840 5841 5842 5843 5844 5844 5845 5846
5806 5807 5808 5809 5810 5811 5812 5813 5814 5814 5815 5816 5817 5818 5819 5820 5821 5822 5823 5823 5824 5825 5826 5827 5828 5829 5830 5831 5832 5833 5834 5834 5835 5836 5837 5838 5839 5840 5841 5842 5843 5843 5844
5803 5804 5805 5806 5807 5808 5809 5810 5811 5812 5812 5813 5814 5815 5816 5817 5818 5819 5820 5820 5821 5822 5823 5824 5825 5826 5827 5828 5829 5830 5831 5832 5833 5834 5835 5836 5837 5838 5838 5839 5840 5841 5842
5799 5800 5801 5802 5803 5805 5806 5807 5808 5808 5809 5810 5811 5812 5813 5814 5815 5816 5817 5817 5818 5819 5820 5821 5822 5823 5824 5825 5826 5827 5828 5829 5831 5832 5833 5834 5835 5835 5836 5837 5838 5839 5840
5795 5796 5797 5799 5800 5801 5802 5803 5804 5805 5806 5807 5808 5809 5809 5810 5811 5812 5813 5814 5815 5816 5817 5818 5819 5820 5821 5822 5823 5824 5825 5826 5828 5829 5830 5831 5832 5833 5833 5834 5835 5836 5837
5791 5792 5793 5794 5796 5797 5798 5799 5800 5801 5802 5803 5804 5805 5805 5806 5807 5808 5809 5810 5811 5812 5813 5814 5815 5816 5817 5818 5819 5820 5821 5823 5824 5825 5827 5828 5829 5830 5831 5832 5832 5833 5834
5786 5787 5789 5790 5791 5792 5793 5795 5796 5796 5797 5798 5799 5800 5801 5802 5803 5804 5805 5805 5806 5808 5809 5810 5811 5812 5813 5814 5815 5816 5818 5819 5820 5821 5823 5824 5825 5826 5827 5828 5829 5830 5831
5780 5782 5783 5785 5786 5787 5788 5790 5791 5791 5792 5793 5794 5795 5796 5797 5798 5799 5800 5801 5802 5803 5804 5805 5806 5808 5809 5810 5811 5812 5813 5815 5816 5817 5819 5820 5821 5822 5823 5824 5825 5826 5827
5775 5776 5778 5779 5780 5782 5783 5784 5785 5786 5787 5788 5789 5790 5791 5792 5793 5794 5795 5795 5796 5798 5799 5800 5801 5803 5804 5805 5806 5807 5809 5810 5811 5813 5814 5815 5817 5818 5819 5820 5821 5822 5823
5768 5770 5772 5773 5774 5776 5777 5778 5779 5780 5781 5782 5783 5784 5785 5786 5787 5788 5789 5790 5791 5792 5793 5794 5796 5797 5799 5800 5801 5802 5804 5805 5806 5808 5809 5810 5811 5813 5814 5815 5816 5818 5819
5762 5763 5765 5766 5767 5769 5770 5771 5772 5773 5774 5775 5776 5777 5778 5779 5780 5781 5782 5783 5785 5786 5787 5788 5790 5791 5792 5794 5795 5796 5798 5799 5801 5802 5804 5805 5806 5807 5809 5810 5811 5812 5814
5755 5756 5757 5759 5760 5761 5763 5764 5765 5766 5767 5768 5769 5770 5771 5772 5773 5774 5776 5777 5778 5779 5780 5782 5783 5785 5786 5787 5789 5790 5791 5793 5794 5796 5798 5799 5800 5802 5803 5804 5806 5807 5808
5747 5748 5750 5751 5752 5753 5755 5756 5757 5759 5760 5761 5762 5763 5764 5765 5766 5767 5768 5769 5771 5772 5773 5774 5776 5777 5779 5780 5782 5783 5785 5786 5787 5789 5791 5792 5794 5795 5797 5798 5799 5801 5802
5739 5740 5741 5742 5744 5745 5747 5748 5749 5750 5752 5753 5754 5755 5756 5757 5758 5759 5760 5761 5762 5764 5765 5766 5767 5769 5771 5772 5774 5775 5777 5778 5780 5782 5783 5785 5787 5788 5789 5791 5792 5794 5795
5730 5731 5733 5734 5735 5737 5738 5739 5740 5742 5743 5744 5745 5746 5747 5748 5749 5750 5751 5752 5754 5755 5756 5757 5759 5760 5762 5764 5765 5767 5768 5770 5772 5773 5775 5777 5779 5780 5782 5783 5785 5786 5788
5721 5722 5723 5725 5726 5728 5729 5730 5731 5732 5733 5735 5736 5737 5737 5739 5740 5741 5742 5743 5744 5745 5747 5748 5749 5751 5753 5754 5756 5758 5760 5761 5763 5764 5766 5768 5770 5771 5773 5775 5776 5778 5780
5711 5712 5714 5715 5716 5718 5719 5720 5721 5722 5723 5724 5725 5726 5727 5728 5729 5731 5732 5733 5734 5735 5736 5738 5740 5741 5743 5745 5747 5749 5751 5752 5754 5755 5757 5758 5760 5762 5764 5766 5767 5769 5771
5701 5702 5704 5705 5706 5708 5709 5710 5711 5712 5713 5714 5715 5716 5717 5718 5719 5720 5721 5722 5723 5724 5726 5727 5729 5731 5733 5735 5737 5739 5741 5743 5744 5745 5747 5749 5750 5752 5754 5756 5758 5760 5761
5690 5692 5693 5695 5696 5697 5699 5700 5701 5702 5703 5704 5705 5706 5707 5708 5709 5709 5710 5711 5712 5713 5715 5717 5719 5721 5723 5725 5727 5729 5731 5732 5734 5735 5737 5739 5740 5742 5744 5745 5747 5749 5751
5680 5681 5683 5684 5685 5687 5688 5690 5691 5692 5693 5694 5695 5696 5697 5697 5698 5699 5700 5700 5701 5702 5704 5706 5708 5710 5712 5714 5716 5718 5721 5723 5723 5725 5726 5728 5730 5731 5733 5735 5737 5739 5741
5669 5670 5672 5673 5675 5676 5677 5679 5680 5681 5682 5684 5685 5686 5686 5687 5688 5688 5689 5689 5690 5691 5693 5694 5696 5699 5701 5703 5704 5707 5709 5711 5713 5715 5716 5717 5719 5720 5722 5724 5726 5728 5729
5658 5659 5661 5662 5663 5665 5666 5668 5669 5671 5672 5674 5674 5675 5676 5676 5677 5677 5678 5678 5679 5680 5681 5683 5685 5687 5689 5691 5693 5695 5698 5700 5702 5704 5705 5706 5708 5709 5711 5713 5714 5716 5718
5646 5647 5649 5650 5652 5654 5655 5657 5658 5660 5662 5663 5663 5664 5665 5665 5666 5666 5666 5667 5668 5669 5670 5671 5673 5675 5677 5679 5682 5684 5686 5688 5689 5692 5694 5696 5696 5698 5699 5701 5703 5705 5706
5633 5635 5637 5639 5640 5642 5644 5646 5647 5649 5650 5651 5652 5653 5654 5654 5654 5655 5655 5656 5656 5657 5659 5660 5661 5663 5665 5668 5670 5672 5674 5676 5677 5679 5682 5684 5685 5686 5688 5689 5691 5693 5694